Time,TemperatureF,DewpointF,PressureIn,WindDirection,WindDirectionDegrees,WindSpeedMPH,WindSpeedGustMPH,Humidity,HourlyPrecipIn,Conditions,Clouds,dailyrainin,SoftwareType,DateUTC
2013-05-20 00:02:00,70.0,64.0,29.70,ENE,76,0.0,-999.0,80,-99.99,,,-99.99,,2013-05-20 05:02:00,
2013-05-20 00:12:00,70.0,64.0,29.70,ENE,76,0.0,-999.0,80,-99.99,,,-99.99,,2013-05-20 05:12:00,
2013-05-20 00:22:00,70.0,64.0,29.68,ENE,76,0.0,-999.0,80,-99.99,,,-99.99,,2013-05-20 05:22:00,
2013-05-20 00:32:00,70.0,65.0,29.68,ENE,76,0.0,-999.0,83,-99.99,,,-99.99,,2013-05-20 05:32:00,
2013-05-20 00:42:00,70.0,65.0,29.68,ENE,76,0.0,-999.0,83,-99.99,,,-99.99,,2013-05-20 05:42:00,
2013-05-20 00:51:00,73.0,69.0,29.68,South,176,0.0,-999.0,86,-99.99,,,-99.99,,2013-05-20 05:51:00,
2013-05-20 01:01:00,75.0,69.0,29.67,SSE,165,3.0,-999.0,81,-99.99,,,-99.99,,2013-05-20 06:01:00,
2013-05-20 01:11:00,75.0,69.0,29.67,SSE,165,3.0,-999.0,81,-99.99,,,-99.99,,2013-05-20 06:11:00,
2013-05-20 01:21:00,76.0,68.0,29.68,South,182,3.0,-999.0,77,-99.99,,,-99.99,,2013-05-20 06:21:00,
2013-05-20 01:32:00,77.0,69.0,29.68,South,173,3.0,-999.0,76,-99.99,,,-99.99,,2013-05-20 06:32:00,
2013-05-20 01:41:00,77.0,69.0,29.68,South,173,3.0,-999.0,76,-99.99,,,-99.99,,2013-05-20 06:41:00,
2013-05-20 01:52:00,77.0,68.0,29.67,SSW,199,5.0,-999.0,75,-99.99,,,-99.99,,2013-05-20 06:52:00,
2013-05-20 02:02:00,75.0,63.0,29.68,WSW,244,8.0,-999.0,67,-99.99,,,-99.99,,2013-05-20 07:02:00,
2013-05-20 02:12:00,75.0,63.0,29.68,WSW,244,8.0,-999.0,67,-99.99,,,-99.99,,2013-05-20 07:12:00,
2013-05-20 02:21:00,73.0,62.0,29.67,WNW,285,5.0,-999.0,69,-99.99,,,-99.99,,2013-05-20 07:21:00,
2013-05-20 02:32:00,71.0,63.0,29.67,WNW,292,3.0,-999.0,76,-99.99,,,-99.99,,2013-05-20 07:32:00,
2013-05-20 02:42:00,71.0,63.0,29.67,WNW,292,3.0,-999.0,76,-99.99,,,-99.99,,2013-05-20 07:42:00,
2013-05-20 02:52:00,69.0,63.0,29.70,West,269,4.0,-999.0,80,-99.99,,,-99.99,,2013-05-20 07:52:00,
2013-05-20 03:01:00,69.0,63.0,29.69,WNW,283,3.0,-999.0,80,-99.99,,,-99.99,,2013-05-20 08:01:00,
2013-05-20 03:11:00,69.0,63.0,29.69,WNW,283,3.0,-999.0,80,-99.99,,,-99.99,,2013-05-20 08:11:00,
2013-05-20 03:21:00,68.0,62.0,29.69,WNW,284,1.0,-999.0,81,-99.99,,,-99.99,,2013-05-20 08:21:00,
2013-05-20 03:31:00,68.0,62.0,29.71,West,264,3.0,-999.0,81,-99.99,,,-99.99,,2013-05-20 08:31:00,
2013-05-20 03:41:00,68.0,62.0,29.71,West,264,3.0,-999.0,81,-99.99,,,-99.99,,2013-05-20 08:41:00,
2013-05-20 03:52:00,68.0,62.0,29.71,SW,235,3.0,-999.0,81,-99.99,,,-99.99,,2013-05-20 08:52:00,
2013-05-20 04:02:00,68.0,61.0,29.71,SW,225,7.0,-999.0,79,-99.99,,,-99.99,,2013-05-20 09:02:00,
2013-05-20 04:12:00,68.0,61.0,29.71,SW,225,7.0,-999.0,79,-99.99,,,-99.99,,2013-05-20 09:12:00,
2013-05-20 04:21:00,68.0,62.0,29.68,SW,235,1.0,-999.0,80,-99.99,,,-99.99,,2013-05-20 09:21:00,
2013-05-20 04:32:00,67.0,62.0,29.69,SW,236,3.0,-999.0,84,-99.99,,,-99.99,,2013-05-20 09:32:00,
2013-05-20 04:43:00,67.0,62.0,29.69,SW,236,3.0,-999.0,84,-99.99,,,-99.99,,2013-05-20 09:43:00,
2013-05-20 04:53:00,66.0,62.0,29.69,SW,234,0.0,-999.0,86,-99.99,,,-99.99,,2013-05-20 09:53:00,
2013-05-20 05:03:00,65.0,61.0,29.66,ESE,123,0.0,-999.0,88,-99.99,,,-99.99,,2013-05-20 10:03:00,
2013-05-20 05:12:00,65.0,61.0,29.66,ESE,123,0.0,-999.0,88,-99.99,,,-99.99,,2013-05-20 10:12:00,
2013-05-20 05:22:00,65.0,62.0,29.68,ESE,123,0.0,-999.0,89,-99.99,,,-99.99,,2013-05-20 10:22:00,
2013-05-20 05:32:00,65.0,62.0,29.75,South,184,1.0,-999.0,89,-99.99,,,-99.99,,2013-05-20 10:32:00,
2013-05-20 05:42:00,65.0,62.0,29.75,South,184,1.0,-999.0,89,-99.99,,,-99.99,,2013-05-20 10:42:00,
2013-05-20 05:52:00,65.0,62.0,29.77,SSW,198,3.0,-999.0,89,-99.99,,,-99.99,,2013-05-20 10:52:00,
2013-05-20 06:02:00,64.0,61.0,29.75,SW,217,5.0,-999.0,89,-99.99,,,-99.99,,2013-05-20 11:02:00,
2013-05-20 06:12:00,64.0,61.0,29.75,SW,217,5.0,-999.0,89,-99.99,,,-99.99,,2013-05-20 11:12:00,
2013-05-20 06:21:00,64.0,61.0,29.75,SE,141,1.0,-999.0,90,-99.99,,,-99.99,,2013-05-20 11:21:00,
2013-05-20 06:32:00,64.0,60.0,29.76,SSE,161,3.0,-999.0,88,-99.99,,,-99.99,,2013-05-20 11:32:00,
2013-05-20 06:41:00,64.0,60.0,29.76,SSE,161,3.0,-999.0,88,-99.99,,,-99.99,,2013-05-20 11:41:00,
2013-05-20 06:52:00,63.0,59.0,29.72,South,169,3.0,-999.0,88,-99.99,,,-99.99,,2013-05-20 11:52:00,
2013-05-20 07:01:00,63.0,59.0,29.69,SE,138,1.0,-999.0,88,-99.99,,,-99.99,,2013-05-20 12:01:00,
2013-05-20 07:11:00,63.0,59.0,29.69,SE,138,1.0,-999.0,88,-99.99,,,-99.99,,2013-05-20 12:11:00,
2013-05-20 07:21:00,63.0,60.0,29.67,ENE,69,0.0,-999.0,90,-99.99,,,-99.99,,2013-05-20 12:21:00,
2013-05-20 07:31:00,63.0,60.0,29.66,SE,131,0.0,-999.0,90,-99.99,,,-99.99,,2013-05-20 12:31:00,
2013-05-20 07:41:00,63.0,60.0,29.66,SE,131,0.0,-999.0,90,-99.99,,,-99.99,,2013-05-20 12:41:00,
2013-05-20 07:52:00,64.0,61.0,29.67,SSE,148,0.0,-999.0,90,-99.99,,,-99.99,,2013-05-20 12:52:00,
2013-05-20 08:01:00,65.0,62.0,29.67,SSE,152,0.0,-999.0,90,-99.99,,,-99.99,,2013-05-20 13:01:00,
2013-05-20 08:11:00,65.0,62.0,29.67,SSE,152,0.0,-999.0,90,-99.99,,,-99.99,,2013-05-20 13:11:00,
2013-05-20 08:22:00,67.0,62.0,29.67,SSW,204,1.0,-999.0,84,-99.99,,,-99.99,,2013-05-20 13:22:00,
2013-05-20 08:31:00,69.0,63.0,29.67,WSW,248,4.0,-999.0,81,-99.99,,,-99.99,,2013-05-20 13:31:00,
2013-05-20 08:41:00,69.0,63.0,29.67,WSW,248,4.0,-999.0,81,-99.99,,,-99.99,,2013-05-20 13:41:00,
2013-05-20 08:52:00,71.0,62.0,29.67,SSW,207,5.0,-999.0,73,-99.99,,,-99.99,,2013-05-20 13:52:00,
2013-05-20 09:01:00,71.0,62.0,29.68,SSW,204,5.0,-999.0,72,-99.99,,,-99.99,,2013-05-20 14:01:00,
2013-05-20 09:11:00,71.0,62.0,29.68,SSW,204,5.0,-999.0,72,-99.99,,,-99.99,,2013-05-20 14:11:00,
2013-05-20 09:22:00,71.0,61.0,29.67,South,176,5.0,-999.0,71,-99.99,,,-99.99,,2013-05-20 14:22:00,
2013-05-20 09:32:00,71.0,61.0,29.70,SSW,206,5.0,-999.0,71,-99.99,,,-99.99,,2013-05-20 14:32:00,
2013-05-20 09:41:00,71.0,61.0,29.70,SSW,206,5.0,-999.0,71,-99.99,,,-99.99,,2013-05-20 14:41:00,
2013-05-20 09:52:00,72.0,62.0,29.70,SSW,200,5.0,-999.0,71,-99.99,,,-99.99,,2013-05-20 14:52:00,
2013-05-20 10:01:00,73.0,63.0,29.71,SSW,208,6.0,-999.0,71,-99.99,,,-99.99,,2013-05-20 15:01:00,
2013-05-20 10:11:00,73.0,63.0,29.71,SSW,208,6.0,-999.0,71,-99.99,,,-99.99,,2013-05-20 15:11:00,
2013-05-20 10:21:00,73.0,63.0,29.70,ESE,115,6.0,-999.0,70,-99.99,,,-99.99,,2013-05-20 15:21:00,
2013-05-20 10:33:00,73.0,62.0,29.70,SSW,207,5.0,-999.0,68,-99.99,,,-99.99,,2013-05-20 15:33:00,
2013-05-20 10:42:00,73.0,62.0,29.70,SSW,207,5.0,-999.0,68,-99.99,,,-99.99,,2013-05-20 15:42:00,
2013-05-20 10:53:00,74.0,62.0,29.70,SSE,158,7.0,-999.0,67,-99.99,,,-99.99,,2013-05-20 15:53:00,
2013-05-20 11:03:00,75.0,63.0,29.73,WSW,238,7.0,-999.0,66,-99.99,,,-99.99,,2013-05-20 16:03:00,
2013-05-20 11:12:00,75.0,63.0,29.73,WSW,238,7.0,-999.0,66,-99.99,,,-99.99,,2013-05-20 16:12:00,
2013-05-20 11:22:00,75.0,64.0,29.72,WSW,242,7.0,-999.0,68,-99.99,,,-99.99,,2013-05-20 16:22:00,
2013-05-20 11:33:00,76.0,63.0,29.72,SSW,207,5.0,-999.0,64,-99.99,,,-99.99,,2013-05-20 16:33:00,
2013-05-20 11:42:00,76.0,63.0,29.72,SSW,207,5.0,-999.0,64,-99.99,,,-99.99,,2013-05-20 16:42:00,
2013-05-20 11:53:00,76.0,62.0,29.72,SW,214,6.0,-999.0,62,-99.99,,,-99.99,,2013-05-20 16:53:00,
2013-05-20 12:02:00,77.0,63.0,29.72,SSW,201,6.0,-999.0,61,-99.99,,,-99.99,,2013-05-20 17:02:00,
2013-05-20 12:12:00,77.0,63.0,29.72,SSW,201,6.0,-999.0,61,-99.99,,,-99.99,,2013-05-20 17:12:00,
2013-05-20 12:22:00,78.0,62.0,29.72,South,189,7.0,-999.0,58,-99.99,,,-99.99,,2013-05-20 17:22:00,
2013-05-20 12:33:00,79.0,62.0,29.71,SW,219,6.0,-999.0,57,-99.99,,,-99.99,,2013-05-20 17:33:00,
2013-05-20 12:45:00,79.0,62.0,29.71,SW,219,6.0,-999.0,57,-99.99,,,-99.99,,2013-05-20 17:45:00,
2013-05-20 12:53:00,80.0,62.0,29.72,SW,229,4.0,-999.0,54,-99.99,,,-99.99,,2013-05-20 17:53:00,
2013-05-20 13:02:00,80.0,61.0,29.72,SSW,207,9.0,-999.0,52,-99.99,,,-99.99,,2013-05-20 18:02:00,
2013-05-20 13:12:00,80.0,61.0,29.72,SSW,207,9.0,-999.0,52,-99.99,,,-99.99,,2013-05-20 18:12:00,
2013-05-20 13:23:00,80.0,61.0,29.72,SW,229,7.0,-999.0,53,-99.99,,,-99.99,,2013-05-20 18:23:00,
2013-05-20 13:32:00,81.0,62.0,29.72,SW,223,6.0,-999.0,52,-99.99,,,-99.99,,2013-05-20 18:32:00,
2013-05-20 13:42:00,81.0,62.0,29.72,SW,223,6.0,-999.0,52,-99.99,,,-99.99,,2013-05-20 18:42:00,
2013-05-20 13:55:00,82.0,62.0,29.73,SW,230,7.0,-999.0,51,-99.99,,,-99.99,,2013-05-20 18:55:00,
2013-05-20 14:04:00,82.0,62.0,29.73,South,180,10.0,-999.0,51,-99.99,,,-99.99,,2013-05-20 19:04:00,
2013-05-20 14:11:00,82.0,62.0,29.73,South,180,10.0,-999.0,51,-99.99,,,-99.99,,2013-05-20 19:11:00,
2013-05-20 14:21:00,82.0,63.0,29.74,SW,225,10.0,-999.0,52,-99.99,,,-99.99,,2013-05-20 19:21:00,
2013-05-20 14:32:00,82.0,63.0,29.74,ESE,117,8.0,-999.0,53,-99.99,,,-99.99,,2013-05-20 19:32:00,
2013-05-20 14:41:00,82.0,63.0,29.74,ESE,117,8.0,-999.0,53,-99.99,,,-99.99,,2013-05-20 19:41:00,
2013-05-20 14:52:00,83.0,63.0,29.74,WSW,253,9.0,-999.0,51,-99.99,,,-99.99,,2013-05-20 19:52:00,
2013-05-20 15:01:00,82.0,61.0,29.74,SW,234,11.0,-999.0,50,-99.99,,,-99.99,,2013-05-20 20:01:00,
2013-05-20 15:12:00,82.0,61.0,29.74,SW,234,11.0,-999.0,50,-99.99,,,-99.99,,2013-05-20 20:12:00,
2013-05-20 15:21:00,83.0,64.0,29.73,SW,223,8.0,-999.0,52,-99.99,,,-99.99,,2013-05-20 20:21:00,
2013-05-20 15:32:00,82.0,64.0,29.68,South,189,2.0,-999.0,55,-99.99,,,-99.99,,2013-05-20 20:32:00,
2013-05-20 15:42:00,82.0,63.0,29.66,SSE,161,3.0,-999.0,52,-99.99,,,-99.99,,2013-05-20 20:42:00,
2013-05-20 15:52:00,82.0,63.0,29.66,SSE,161,3.0,-999.0,52,-99.99,,,-99.99,,2013-05-20 20:52:00,
2013-05-20 16:01:00,83.0,63.0,29.68,SW,216,3.0,-999.0,51,-99.99,,,-99.99,,2013-05-20 21:01:00,
2013-05-20 16:11:00,83.0,63.0,29.68,SW,216,3.0,-999.0,51,-99.99,,,-99.99,,2013-05-20 21:11:00,
2013-05-20 16:21:00,84.0,63.0,29.68,WSW,251,3.0,-999.0,50,-99.99,,,-99.99,,2013-05-20 21:21:00,
2013-05-20 16:32:00,84.0,62.0,29.68,SE,130,5.0,-999.0,48,-99.99,,,-99.99,,2013-05-20 21:32:00,
2013-05-20 16:43:00,84.0,61.0,29.69,SSW,193,4.0,-999.0,46,-99.99,,,-99.99,,2013-05-20 21:43:00,
2013-05-20 16:53:00,84.0,61.0,29.69,SSW,193,4.0,-999.0,46,-99.99,,,-99.99,,2013-05-20 21:53:00,
2013-05-20 17:02:00,85.0,65.0,29.68,SSW,213,4.0,-999.0,51,-99.99,,,-99.99,,2013-05-20 22:02:00,
2013-05-20 17:12:00,85.0,65.0,29.68,SSW,213,4.0,-999.0,51,-99.99,,,-99.99,,2013-05-20 22:12:00,
2013-05-20 17:23:00,84.0,64.0,29.69,SSE,152,5.0,-999.0,51,-99.99,,,-99.99,,2013-05-20 22:23:00,
2013-05-20 17:33:00,83.0,64.0,29.68,SSW,212,4.0,-999.0,53,-99.99,,,-99.99,,2013-05-20 22:33:00,
2013-05-20 17:42:00,83.0,64.0,29.68,SSW,212,4.0,-999.0,53,-99.99,,,-99.99,,2013-05-20 22:42:00,
2013-05-20 17:52:00,83.0,64.0,29.68,SE,137,2.0,-999.0,52,-99.99,,,-99.99,,2013-05-20 22:52:00,
2013-05-20 18:02:00,82.0,61.0,29.68,SSW,211,3.0,-999.0,49,-99.99,,,-99.99,,2013-05-20 23:02:00,
2013-05-20 18:12:00,82.0,61.0,29.68,SSW,211,3.0,-999.0,49,-99.99,,,-99.99,,2013-05-20 23:12:00,
2013-05-20 18:22:00,83.0,61.0,29.68,SSW,198,6.0,-999.0,47,-99.99,,,-99.99,,2013-05-20 23:22:00,
2013-05-20 18:32:00,82.0,63.0,29.67,SSW,196,4.0,-999.0,52,-99.99,,,-99.99,,2013-05-20 23:32:00,
2013-05-20 18:42:00,82.0,63.0,29.67,SSW,196,4.0,-999.0,52,-99.99,,,-99.99,,2013-05-20 23:42:00,
2013-05-20 18:53:00,82.0,63.0,29.66,SSW,198,3.0,-999.0,53,-99.99,,,-99.99,,2013-05-20 23:53:00,
2013-05-20 19:01:00,82.0,63.0,29.66,SSW,198,3.0,-999.0,53,-99.99,,,-99.99,,2013-05-21 00:01:00,
2013-05-20 19:11:00,82.0,63.0,29.66,SSW,198,3.0,-999.0,53,-99.99,,,-99.99,,2013-05-21 00:11:00,
2013-05-20 19:21:00,82.0,63.0,29.66,SSW,198,3.0,-999.0,53,-99.99,,,-99.99,,2013-05-21 00:21:00,
2013-05-20 19:31:00,80.0,61.0,29.67,SW,234,3.0,-999.0,52,-99.99,,,-99.99,,2013-05-21 00:31:00,
2013-05-20 19:42:00,79.0,59.0,29.65,WSW,239,4.0,-999.0,51,-99.99,,,-99.99,,2013-05-21 00:42:00,
2013-05-20 19:52:00,79.0,59.0,29.65,WSW,239,4.0,-999.0,51,-99.99,,,-99.99,,2013-05-21 00:52:00,
2013-05-20 20:01:00,78.0,58.0,29.64,WSW,241,1.0,-999.0,51,-99.99,,,-99.99,,2013-05-21 01:01:00,
2013-05-20 20:11:00,78.0,58.0,29.64,WSW,241,1.0,-999.0,51,-99.99,,,-99.99,,2013-05-21 01:11:00,
2013-05-20 20:22:00,77.0,59.0,29.65,SW,234,1.0,-999.0,53,-99.99,,,-99.99,,2013-05-21 01:22:00,
2013-05-20 20:32:00,77.0,59.0,29.65,SW,234,0.0,-999.0,54,-99.99,,,-99.99,,2013-05-21 01:32:00,
2013-05-20 20:42:00,77.0,59.0,29.65,SW,234,0.0,-999.0,54,-99.99,,,-99.99,,2013-05-21 01:42:00,
2013-05-20 20:53:00,73.0,63.0,29.63,West,275,2.0,-999.0,71,-99.99,,,-99.99,,2013-05-21 01:53:00,
2013-05-20 21:02:00,69.0,65.0,29.67,WSW,252,0.0,-999.0,86,-99.99,,,-99.99,,2013-05-21 02:02:00,
2013-05-20 21:11:00,69.0,65.0,29.67,WSW,252,0.0,-999.0,86,-99.99,,,-99.99,,2013-05-21 02:11:00,
2013-05-20 21:21:00,69.0,65.0,29.67,WSW,250,5.0,-999.0,87,-99.99,,,-99.99,,2013-05-21 02:21:00,
2013-05-20 21:32:00,65.0,61.0,29.70,WSW,257,14.0,-999.0,88,-99.99,,,-99.99,,2013-05-21 02:32:00,
2013-05-20 21:42:00,64.0,62.0,29.66,WNW,296,2.0,-999.0,93,-99.99,,,-99.99,,2013-05-21 02:42:00,
2013-05-20 21:52:00,64.0,62.0,29.66,WNW,296,2.0,-999.0,93,-99.99,,,-99.99,,2013-05-21 02:52:00,
2013-05-20 22:02:00,64.0,63.0,29.74,West,263,0.0,-999.0,95,-99.99,,,-99.99,,2013-05-21 03:02:00,
2013-05-20 22:11:00,64.0,63.0,29.74,West,263,0.0,-999.0,95,-99.99,,,-99.99,,2013-05-21 03:11:00,
2013-05-20 22:21:00,63.0,61.0,29.73,WSW,252,16.0,-999.0,94,-99.99,,,-99.99,,2013-05-21 03:21:00,
2013-05-20 22:33:00,63.0,62.0,29.73,NW,309,11.0,-999.0,95,-99.99,,,-99.99,,2013-05-21 03:33:00,
2013-05-20 22:43:00,62.0,61.0,29.72,SSW,211,3.0,-999.0,95,-99.99,,,-99.99,,2013-05-21 03:43:00,
2013-05-20 22:53:00,62.0,61.0,29.72,SSW,211,3.0,-999.0,95,-99.99,,,-99.99,,2013-05-21 03:53:00,
2013-05-20 23:03:00,62.0,61.0,29.70,SSW,212,0.0,-999.0,96,-99.99,,,-99.99,,2013-05-21 04:03:00,
2013-05-20 23:13:00,62.0,61.0,29.70,SSW,212,0.0,-999.0,96,-99.99,,,-99.99,,2013-05-21 04:13:00,
2013-05-20 23:23:00,62.0,61.0,29.63,NE,51,2.0,-999.0,96,-99.99,,,-99.99,,2013-05-21 04:23:00,
2013-05-20 23:33:00,62.0,61.0,29.62,ENE,72,2.0,-999.0,96,-99.99,,,-99.99,,2013-05-21 04:33:00,
2013-05-20 23:42:00,62.0,61.0,29.62,ENE,72,2.0,-999.0,96,-99.99,,,-99.99,,2013-05-21 04:42:00,
2013-05-20 23:53:00,62.0,61.0,29.63,East,82,0.0,-999.0,96,-99.99,,,-99.99,,2013-05-21 04:53:00,